N3HBJ Weather Reports


time (UTC)temp
F
wind
direction
speed
knots
gust
knots
rain 1hr
in
rain 24hr
in
rain mn
in
humidity
%
barometer
mb
20260507144910 54 207 1.7 8.7 0.00 0.00 0.00 44 1012.2
20260507144410 54 178 0.9 5.2 0.00 0.00 0.00 45 1012.3
20260507143910 54 208 0.9 6.1 0.00 0.00 0.00 46 1012.4
20260507143410 53 138 0.9 6.1 0.00 0.00 0.00 50 1012.3
20260507142910 53 192 1.7 10.4 0.00 0.00 0.00 46 1012.3
20260507142410 52 262 1.7 10.4 0.00 0.00 0.00 49 1012.5
20260507142134 52 264 1.7 7.0 0.00 0.00 0.00 45 1012.6
20260507141410 52 187 1.7 7.0 0.00 0.00 0.00 46 1012.6
20260507140911 52 252 1.7 7.0 0.00 0.00 0.00 48 1012.7
20260507140633 52 146 1.7 7.0 0.00 0.00 0.00 52 1012.7
20260507135910 51 194 0.9 6.1 0.00 0.00 0.00 50 1012.8
20260507135410 51 222 0.9 7.0 0.00 0.00 0.00 52 1012.9
20260507134910 51 262 1.7 7.0 0.00 0.00 0.00 49 1012.9
20260507134410 50 96 0.9 7.0 0.00 0.00 0.00 49 1012.9
20260507133907 50 167 0.0 5.2 0.00 0.00 0.00 53 1012.9
20260507133629 49 29 0.9 5.2 0.00 0.00 0.00 55 1012.9
20260507132904 49 84 1.7 7.0 0.00 0.01 0.00 57 1012.9
20260507132358 49 74 1.7 7.8 0.00 0.01 0.00 59 1012.9
20260507131852 49 133 0.9 7.8 0.00 0.01 0.00 59 1013.0
20260507131346 48 82 1.7 4.3 0.00 0.01 0.00 61 1013.1
20260507130839 48 53 1.7 4.3 0.00 0.01 0.00 61 1013.1
20260507130340 47 53 0.9 4.3 0.00 0.01 0.00 64 1013.3
20260507125838 47 76 0.9 3.5 0.00 0.01 0.00 65 1013.3
20260507125338 46 84 0.9 6.1 0.00 0.01 0.00 68 1013.3
20260507124837 46 90 0.9 6.1 0.00 0.01 0.00 67 1013.4
20260507124335 45 65 0.9 5.2 0.00 0.01 0.00 68 1013.4
20260507123834 45 70 0.9 4.3 0.00 0.01 0.00 69 1013.4
20260507123331 44 85 0.9 3.5 0.00 0.01 0.00 70 1013.4
20260507122834 44 52 0.9 3.5 0.00 0.01 0.00 72 1013.3
20260507122332 44 69 0.9 3.5 0.00 0.01 0.00 73 1013.4
20260507121831 43 109 0.0 2.6 0.00 0.01 0.00 74 1013.5
20260507121332 42 348 0.0 1.7 0.00 0.02 0.00 77 1013.4
20260507120832 41 203 0.0 0.0 0.00 0.02 0.00 80 1013.4
20260507120606 40 203 0.0 0.0 0.00 0.02 0.00 83 1013.3
20260507115831 39 203 0.0 0.0 0.00 0.02 0.00 87 1013.3
20260507115331 38 203 0.0 0.0 0.00 0.03 0.00 88 1013.1
20260507115107 37 203 0.0 0.0 0.00 0.04 0.00 90 1013.1
20260507114332 36 203 0.0 0.0 0.00 0.06 0.00 90 1013.0
20260507114058 36 203 0.0 0.0 0.00 0.10 0.00 90 1013.0
20260507113328 35 203 0.0 0.0 0.00 0.12 0.00 90 1013.0
20260507113043 35 203 0.0 0.0 0.00 0.14 0.00 91 1013.0
20260507112321 34 203 0.0 0.0 0.00 0.15 0.00 92 1013.0
20260507111819 34 203 0.0 0.0 0.00 0.15 0.00 92 1013.0
20260507111558 33 203 0.0 0.0 0.00 0.16 0.00 92 1013.0
20260507111041 33 203 0.0 0.0 0.00 0.17 0.00 91 1012.9
20260507110320 33 203 0.0 0.0 0.00 0.17 0.00 91 1012.9
20260507110045 32 203 0.0 0.0 0.00 0.18 0.00 90 1012.8
20260507105319 32 203 0.0 0.0 0.00 0.19 0.00 90 1012.8
20260507104820 32 203 0.0 0.0 0.00 0.19 0.00 90 1012.7
20260507104320 32 203 0.0 0.0 0.00 0.20 0.00 90 1012.7
20260507103820 32 203 0.0 0.0 0.00 0.20 0.00 90 1012.7
20260507103319 32 203 0.0 0.0 0.00 0.20 0.00 90 1012.7
20260507103041 33 203 0.0 0.0 0.00 0.21 0.00 90 1012.5
20260507102319 33 203 0.0 0.0 0.00 0.22 0.00 89 1012.5
20260507101819 33 203 0.0 0.0 0.00 0.23 0.00 89 1012.7
20260507101547 33 203 0.0 0.0 0.00 0.23 0.00 89 1012.6
20260507100821 33 203 0.0 0.0 0.00 0.24 0.00 89 1012.6
20260507100318 33 203 0.0 0.0 0.00 0.25 0.00 88 1012.5
20260507095823 33 203 0.0 0.0 0.00 0.26 0.00 88 1012.5
20260507095320 33 203 0.0 0.0 0.00 0.27 0.00 88 1012.5
20260507094821 34 203 0.0 0.0 0.00 0.27 0.00 88 1012.5
20260507094319 34 203 0.0 0.0 0.00 0.28 0.00 88 1012.5
20260507093821 34 203 0.0 0.0 0.00 0.28 0.00 88 1012.6
20260507093320 34 203 0.0 0.0 0.00 0.28 0.00 88 1012.5
20260507093040 34 203 0.0 0.0 0.00 0.28 0.00 87 1012.6
20260507092320 35 203 0.0 0.0 0.00 0.28 0.00 87 1012.5
20260507091822 35 203 0.0 0.0 0.00 0.28 0.00 87 1012.5
20260507091549 35 203 0.0 0.0 0.00 0.28 0.00 87 1012.6
20260507090821 35 203 0.0 0.0 0.00 0.28 0.00 87 1012.5
20260507090319 35 203 0.0 0.0 0.00 0.28 0.00 86 1012.4
20260507085821 36 203 0.0 0.0 0.00 0.28 0.00 86 1012.4
20260507085319 36 203 0.0 0.0 0.00 0.29 0.00 85 1012.3
20260507084821 36 203 0.0 0.0 0.00 0.29 0.00 85 1012.3
20260507084320 37 203 0.0 0.0 0.00 0.29 0.00 85 1012.3
20260507083821 37 203 0.0 0.0 0.00 0.29 0.00 84 1012.3
20260507083319 37 203 0.0 0.0 0.00 0.29 0.00 84 1012.3
20260507082820 38 203 0.0 0.0 0.00 0.29 0.00 83 1012.3
20260507082318 38 203 0.0 0.0 0.00 0.29 0.00 83 1012.4
20260507081816 38 203 0.0 0.0 0.00 0.29 0.00 83 1012.4
20260507081315 39 203 0.0 0.0 0.00 0.29 0.00 82 1012.4
20260507080812 39 203 0.0 0.0 0.00 0.29 0.00 81 1012.5
20260507080540 39 203 0.0 0.0 0.00 0.29 0.00 81 1012.4
20260507075813 40 203 0.0 0.0 0.00 0.30 0.00 80 1012.4
20260507075535 40 203 0.0 0.0 0.00 0.30 0.00 79 1012.5
20260507074813 40 203 0.0 0.0 0.00 0.30 0.00 79 1012.5
20260507074759 41 203 0.0 0.0 0.00 0.30 0.00 80 1012.5
20260507073811 41 203 0.0 0.0 0.00 0.30 0.00 79 1012.5
20260507073312 42 203 0.0 0.0 0.00 0.30 0.00 79 1012.5
20260507072811 42 203 0.0 0.0 0.00 0.30 0.00 78 1012.5
20260507072311 42 203 0.0 0.0 0.00 0.30 0.00 77 1012.5
20260507072027 42 203 0.0 0.0 0.00 0.30 0.00 77 1012.5
20260507071308 43 203 0.0 0.0 0.00 0.30 0.00 77 1012.4
20260507070801 43 203 0.0 0.0 0.00 0.30 0.00 76 1012.4
20260507070254 43 203 0.0 0.0 0.00 0.30 0.00 76 1012.4
20260507065748 43 203 0.0 0.0 0.00 0.30 0.00 74 1012.4
20260507065249 43 203 0.0 0.0 0.00 0.30 0.00 77 1012.4
20260507064750 43 203 0.0 0.0 0.00 0.30 0.00 78 1012.3
20260507064451 43 203 0.0 0.0 0.00 0.31 0.00 78 1012.4
20260507064442 43 203 0.0 0.0 0.00 0.30 0.00 78 1012.4
20260507063241 43 203 0.0 0.0 0.00 0.31 0.00 76 1012.4
20260507062741 43 203 0.0 0.0 0.00 0.31 0.00 76 1012.5
20260507062240 43 203 0.0 0.0 0.00 0.31 0.00 79 1012.5
20260507061739 43 203 0.0 0.0 0.00 0.31 0.00 78 1012.7
20260507061237 43 203 0.0 0.0 0.00 0.31 0.00 80 1012.8
20260507060737 43 203 0.0 0.0 0.00 0.31 0.00 80 1012.8
20260507060500 43 203 0.0 0.0 0.00 0.31 0.00 77 1012.9
20260507055734 43 203 0.0 0.0 0.00 0.31 0.00 79 1012.8
20260507055232 43 203 0.0 0.0 0.00 0.31 0.00 78 1012.9
20260507054733 43 203 0.0 0.0 0.00 0.31 0.00 80 1012.9
20260507054232 43 203 0.0 0.0 0.00 0.31 0.00 79 1012.9
20260507053732 43 203 0.0 0.0 0.00 0.31 0.00 78 1012.9
20260507053231 44 203 0.0 0.0 0.00 0.31 0.00 78 1012.8
20260507052731 44 203 0.0 0.0 0.00 0.31 0.00 77 1013.0
20260507052231 44 203 0.0 0.0 0.00 0.31 0.00 75 1013.0
20260507051731 44 203 0.0 0.0 0.00 0.31 0.00 75 1013.0
20260507051230 44 203 0.0 0.0 0.00 0.31 0.00 75 1012.9
20260507050729 44 203 0.0 0.0 0.00 0.31 0.00 76 1012.9
20260507050228 44 203 0.0 0.0 0.00 0.31 0.00 75 1012.9
20260507045952 44 203 0.0 0.0 0.00 0.31 0.00 74 1013.0
20260507045443 45 203 0.0 0.0 0.00 0.31 0.00 72 1013.0
20260507044948 45 203 0.0 0.0 0.00 0.31 0.00 72 1013.0
20260507044225 45 203 0.0 0.0 0.00 0.31 0.00 71 1013.0
20260507043725 45 203 0.0 0.0 0.00 0.31 0.00 70 1013.0
20260507043439 46 203 0.0 0.0 0.00 0.31 0.00 72 1012.9
20260507042722 46 203 0.0 0.0 0.00 0.31 0.00 70 1012.8
20260507042439 46 203 0.0 0.0 0.00 0.31 0.00 68 1012.9
20260507041720 46 203 0.0 0.0 0.00 0.31 0.00 70 1012.8
20260507041219 46 203 0.0 0.0 0.00 0.31 0.00 70 1012.7
20260507040719 46 203 0.0 0.0 0.00 0.31 0.00 71 1012.7
20260507040219 46 203 0.0 0.0 0.00 0.31 0.00 70 1012.7
20260507035719 46 203 0.0 0.0 0.00 0.31 0.31 66 1012.6
20260507035216 47 203 0.0 0.0 0.00 0.31 0.31 67 1012.7
20260507034717 47 203 0.0 0.0 0.00 0.31 0.31 66 1012.7
20260507034217 47 203 0.0 0.0 0.00 0.31 0.31 64 1012.6
20260507033717 47 203 0.0 0.0 0.00 0.31 0.31 65 1012.7
20260507033215 47 203 0.0 2.6 0.00 0.31 0.31 65 1012.7
20260507032934 47 203 0.0 2.6 0.00 0.31 0.31 65 1012.7
20260507032214 47 203 0.0 2.6 0.00 0.31 0.31 65 1012.5
20260507031715 47 203 0.0 2.6 0.00 0.31 0.31 67 1012.6
20260507031214 47 242 0.0 1.7 0.00 0.31 0.31 67 1012.5
20260507030714 47 242 0.0 1.7 0.00 0.31 0.31 66 1012.5
20260507030215 47 253 0.0 0.0 0.00 0.31 0.31 65 1012.3
20260507025940 47 253 0.0 0.0 0.00 0.31 0.31 67 1012.2
20260507025210 47 253 0.0 0.0 0.00 0.31 0.31 65 1012.4
20260507024710 47 253 0.0 1.7 0.00 0.31 0.31 64 1012.3
20260507024210 47 253 0.0 1.7 0.00 0.31 0.31 62 1012.3
20260507023711 47 278 0.0 0.0 0.00 0.31 0.31 63 1012.2
20260507023208 47 278 0.0 0.0 0.00 0.31 0.31 62 1012.3
20260507022721 48 278 0.0 0.0 0.00 0.31 0.31 62 1012.3
20260507022206 48 278 0.0 2.6 0.00 0.31 0.31 61 1012.3
20260507021706 48 279 0.0 2.6 0.00 0.31 0.31 61 1012.2
20260507021425 48 279 0.0 4.3 0.00 0.31 0.31 61 1012.3
20260507020704 48 189 0.0 5.2 0.00 0.31 0.31 61 1012.2
20260507020653 48 230 0.0 5.2 0.00 0.31 0.31 61 1012.3
20260507015700 49 201 0.9 4.3 0.00 0.31 0.31 62 1012.2
20260507015200 49 226 0.9 7.0 0.00 0.31 0.31 62 1012.0
20260507014700 49 217 0.9 7.0 0.00 0.31 0.31 65 1012.1
20260507014431 49 312 0.9 5.2 0.00 0.31 0.31 73 1012.3
20260507014146 49 272 0.0 5.2 0.00 0.31 0.31 74 1012.4
20260507013426 50 180 0.0 5.2 0.00 0.31 0.31 76 1012.3
20260507012700 50 223 0.0 1.7 0.00 0.31 0.31 76 1012.2
20260507012200 50 196 0.0 1.7 0.00 0.31 0.31 76 1012.4
20260507011702 50 146 0.0 0.0 0.00 0.31 0.31 77 1012.3
20260507011424 50 146 0.0 0.0 0.00 0.31 0.31 77 1012.3
20260507010700 50 146 0.0 1.7 0.00 0.31 0.31 77 1012.4
20260507010159 50 146 0.0 1.7 0.00 0.31 0.31 76 1012.2
20260507005656 50 146 0.0 2.6 0.00 0.31 0.31 76 1012.1
20260507005155 50 143 0.0 2.6 0.00 0.31 0.31 76 1012.1
20260507004656 51 211 0.0 1.7 0.00 0.31 0.31 76 1012.3
20260507004153 51 223 0.0 4.3 0.00 0.31 0.31 75 1012.3
20260507003647 51 224 0.0 4.3 0.00 0.31 0.31 75 1012.1
20260507003141 51 178 0.0 2.6 0.00 0.31 0.31 75 1012.1
20260507002635 51 147 0.0 5.2 0.00 0.31 0.31 75 1012.0
20260507002129 51 146 0.0 5.2 0.00 0.31 0.31 75 1011.8
20260507001849 51 292 0.0 2.6 0.00 0.31 0.31 75 1011.8
20260507001124 51 292 0.0 2.6 0.00 0.31 0.31 75 1011.7
20260507000624 51 150 0.0 1.7 0.00 0.31 0.31 76 1011.5
20260507000125 51 194 0.0 2.6 0.00 0.31 0.31 76 1011.5
20260507000109 51 197 0.0 2.6 0.00 0.31 0.31 76 1011.5
20260506235118 51 176 0.9 6.1 0.00 0.31 0.31 76 1011.5
20260506234619 51 177 0.9 6.1 0.00 0.31 0.31 76 1011.3
20260506234119 51 133 0.0 3.5 0.00 0.31 0.31 78 1011.3
20260506233619 51 104 0.0 1.7 0.00 0.31 0.31 79 1011.1
20260506233118 51 103 0.0 1.7 0.00 0.31 0.31 80 1011.0
20260506232621 51 197 0.0 0.0 0.00 0.31 0.31 80 1011.0
20260506232118 51 197 0.0 0.0 0.00 0.31 0.31 80 1010.8
20260506231618 51 197 0.0 1.7 0.00 0.31 0.31 80 1010.7
20260506231118 51 197 0.0 1.7 0.00 0.31 0.31 80 1010.7
20260506230619 51 198 0.0 0.0 0.00 0.31 0.31 81 1010.7
20260506230119 51 198 0.0 0.9 0.00 0.31 0.31 81 1010.7
20260506225618 51 198 0.0 1.7 0.00 0.31 0.31 80 1010.7
20260506225118 51 198 0.0 1.7 0.00 0.31 0.31 80 1010.6
20260506224618 51 198 0.0 1.7 0.00 0.31 0.31 81 1010.7
20260506224111 51 199 0.0 0.0 0.00 0.31 0.31 81 1011.0
20260506223605 51 199 0.0 0.0 0.00 0.31 0.31 81 1011.0
20260506223105 51 199 0.0 0.0 0.00 0.31 0.31 82 1011.0
20260506222824 51 199 0.0 1.7 0.00 0.31 0.31 81 1011.0
20260506222120 51 199 0.0 2.6 0.00 0.31 0.31 82 1010.8
20260506221828 51 216 0.0 2.6 0.00 0.31 0.31 81 1010.6
20260506221106 51 180 0.9 3.5 0.00 0.31 0.31 81 1010.5
20260506220603 51 193 0.9 5.2 0.00 0.31 0.31 81 1010.3
20260506220104 51 241 0.9 5.2 0.00 0.31 0.31 81 1010.2
20260506215604 51 217 0.9 6.1 0.00 0.31 0.31 81 1010.2
20260506215321 51 223 0.9 6.1 0.00 0.31 0.31 80 1010.2
20260506214559 52 213 0.9 7.0 0.00 0.31 0.31 80 1010.3
20260506214314 52 228 0.9 7.0 0.00 0.31 0.31 79 1010.3
20260506213556 52 288 1.7 7.0 0.00 0.31 0.31 78 1010.1
20260506213056 53 257 0.9 7.0 0.00 0.31 0.31 78 1010.1
20260506212823 53 250 0.9 6.1 0.00 0.31 0.31 78 1010.0
20260506212056 53 180 0.9 6.1 0.00 0.31 0.31 78 1009.8
20260506211556 53 182 0.9 6.1 0.00 0.31 0.31 78 1009.7
20260506211055 53 219 0.9 6.1 0.00 0.31 0.31 79 1009.6
20260506210553 53 182 0.9 5.2 0.00 0.31 0.31 78 1009.5
20260506210101 53 223 1.7 6.1 0.00 0.31 0.31 78 1009.4
20260506205549 53 311 0.9 8.7 0.00 0.31 0.31 78 1009.4
20260506205047 54 202 0.9 8.7 0.00 0.31 0.31 77 1009.4
20260506204548 54 130 0.9 8.7 0.00 0.31 0.31 78 1009.3
20260506204050 54 163 0.9 8.7 0.00 0.31 0.31 78 1009.3
20260506203548 54 222 0.9 5.2 0.00 0.31 0.31 79 1009.3
20260506203047 55 236 0.0 5.2 0.00 0.31 0.31 79 1009.2
20260506202545 55 210 0.9 5.2 0.00 0.31 0.31 79 1009.2
20260506202045 55 175 0.0 2.6 0.00 0.31 0.31 79 1009.2
20260506201558 55 72 0.9 6.1 0.00 0.31 0.31 80 1009.2
20260506201044 55 63 0.9 6.1 0.00 0.31 0.31 80 1009.2
20260506200543 55 195 0.0 2.6 0.00 0.31 0.31 81 1009.2
20260506200042 55 155 0.0 2.6 0.00 0.31 0.31 80 1009.1
20260506195539 55 163 0.9 8.7 0.00 0.31 0.31 80 1008.9
20260506195300 55 191 0.9 8.7 0.00 0.31 0.31 80 1008.9
20260506194539 55 128 0.9 6.1 0.00 0.31 0.31 79 1008.8
20260506194301 55 198 1.7 6.1 0.00 0.31 0.31 80 1008.8
20260506193806 56 176 0.9 6.1 0.00 0.31 0.31 80 1008.7
20260506193255 56 134 0.9 4.3 0.00 0.31 0.31 80 1008.6
20260506193020 56 215 0.9 4.3 0.00 0.31 0.31 80 1008.6
20260506192037 56 158 0.9 7.8 0.00 0.31 0.31 80 1008.4
20260506191538 56 197 0.9 7.8 0.00 0.31 0.31 81 1008.6
20260506191030 56 178 1.7 6.1 0.00 0.31 0.31 80 1008.4
20260506190537 56 204 1.7 7.8 0.00 0.31 0.31 80 1008.4
20260506190031 56 140 0.9 7.8 0.00 0.31 0.31 81 1008.6
20260506185532 56 144 0.9 4.3 0.00 0.31 0.31 81 1008.6
20260506185030 56 251 0.9 5.2 0.00 0.31 0.31 81 1008.6
20260506184531 57 192 1.7 8.7 0.00 0.31 0.31 81 1008.4
20260506184032 57 86 1.7 8.7 0.00 0.31 0.31 81 1008.2
20260506183533 57 176 1.7 7.8 0.00 0.31 0.31 82 1008.2
20260506183030 56 203 1.7 7.8 0.00 0.31 0.31 82 1008.2
20260506182536 56 128 0.9 7.0 0.00 0.31 0.31 83 1008.2
20260506182031 56 180 1.7 7.0 0.00 0.31 0.31 82 1008.2
20260506181534 57 182 2.6 11.3 0.00 0.31 0.31 82 1008.0
20260506181248 57 205 1.7 11.3 0.00 0.31 0.31 83 1007.9
20260506180524 57 142 0.9 6.1 0.00 0.31 0.31 84 1008.0
20260506180023 58 89 0.9 6.1 0.00 0.31 0.31 84 1007.8
20260506175522 58 113 0.9 7.0 0.00 0.31 0.31 84 1007.8
20260506175251 58 169 1.7 7.0 0.00 0.31 0.31 83 1007.8
20260506174524 58 155 1.7 7.0 0.00 0.31 0.31 83 1007.7
20260506174244 58 142 1.7 5.2 0.00 0.31 0.31 84 1007.6
20260506173741 58 147 1.7 7.0 0.00 0.31 0.31 84 1007.6
20260506173238 58 88 1.7 9.6 0.00 0.31 0.31 84 1007.5
20260506172519 58 124 1.7 9.6 0.00 0.31 0.31 84 1007.7
20260506172019 58 134 1.7 7.8 0.00 0.31 0.31 85 1007.7
20260506171738 58 98 1.7 7.8 0.00 0.31 0.31 85 1007.7
20260506171018 58 137 0.9 6.1 0.00 0.31 0.31 86 1007.7
20260506170736 58 156 0.9 6.1 0.00 0.31 0.31 85 1007.6
20260506170018 58 143 0.0 6.1 0.00 0.31 0.31 87 1007.5
20260506165521 57 143 0.0 6.1 0.00 0.31 0.31 88 1007.6
20260506165019 57 143 0.9 8.7 0.00 0.31 0.31 87 1007.5
20260506164736 57 191 1.7 8.7 0.00 0.31 0.31 87 1007.6
20260506164017 57 190 1.7 10.4 0.00 0.31 0.31 86 1007.5
20260506163519 58 146 1.7 10.4 0.00 0.31 0.31 85 1007.5
20260506163018 58 174 1.7 7.0 0.00 0.31 0.31 87 1007.5
20260506162519 58 81 1.7 7.8 0.00 0.31 0.31 87 1007.2
20260506162019 58 126 1.7 7.8 0.00 0.31 0.31 87 1007.2
20260506161518 58 140 0.9 6.1 0.00 0.31 0.31 88 1007.3
20260506161031 58 81 0.0 2.6 0.00 0.31 0.31 88 1007.2
20260506160518 58 74 0.0 2.6 0.00 0.31 0.31 88 1007.2
20260506160031 58 105 0.0 2.6 0.00 0.31 0.31 88 1007.1
20260506155519 58 105 0.0 3.5 0.00 0.31 0.31 88 1007.1
20260506155019 58 61 0.9 3.5 0.00 0.31 0.31 88 1007.1
20260506154518 58 78 0.9 10.4 0.00 0.31 0.31 88 1007.0
20260506154018 58 92 1.7 10.4 0.00 0.31 0.31 88 1006.9
20260506153518 58 59 0.9 5.2 0.00 0.31 0.31 88 1006.9
20260506153019 58 132 0.9 6.1 0.00 0.31 0.31 88 1006.8
20260506152743 58 67 0.9 6.1 0.00 0.31 0.31 88 1006.7
20260506152018 58 57 0.9 5.2 0.00 0.31 0.31 88 1006.6
20260506152005 58 63 1.7 8.7 0.00 0.31 0.31 88 1006.6
20260506151018 58 85 0.9 8.7 0.00 0.31 0.31 88 1006.6
20260506150518 58 130 0.9 4.3 0.00 0.31 0.31 89 1006.6
20260506150239 58 131 0.9 5.2 0.00 0.31 0.31 89 1006.7
20260506145748 57 54 0.0 5.2 0.00 0.31 0.31 89 1006.7